| time (UTC) | temp C | wind direction | speed KPH | gust KPH | rain 1hr cm | rain 24hr cm | rain mn cm | humidity % | barometer mb |
| 20260506180518 | 17 | 113 | 8.0 | 17.7 | 0.00 | 0.00 | 0.00 | 58 | 1010.2 |
| 20260506175610 | 17 | 100 | 6.4 | 17.7 | 0.00 | 0.00 | 0.00 | 57 | 1010.1 |
| 20260506174605 | 17 | 91 | 9.7 | 22.5 | 0.00 | 0.00 | 0.00 | 55 | 1010.0 |
| 20260506173600 | 18 | 107 | 3.2 | 11.3 | 0.00 | 0.00 | 0.00 | 49 | 1009.8 |
| 20260506172556 | 19 | 168 | 1.6 | 6.4 | 0.00 | 0.00 | 0.00 | 47 | 1009.8 |
| 20260506171548 | 19 | 104 | 1.6 | 6.4 | 0.00 | 0.03 | 0.00 | 47 | 1009.7 |
| 20260506170543 | 18 | 159 | 1.6 | 3.2 | 0.00 | 0.03 | 0.00 | 48 | 1009.7 |
| 20260506165538 | 18 | 114 | 1.6 | 6.4 | 0.00 | 0.03 | 0.00 | 50 | 1009.6 |
| 20260506164530 | 18 | 114 | 4.8 | 17.7 | 0.00 | 0.05 | 0.00 | 50 | 1009.7 |
| 20260506163525 | 18 | 126 | 1.6 | 6.4 | 0.00 | 0.05 | 0.00 | 50 | 1009.6 |
| 20260506162540 | 18 | 19 | 3.2 | 6.4 | 0.00 | 0.05 | 0.00 | 50 | 1009.5 |
| 20260506161615 | 19 | 92 | 4.8 | 9.7 | 0.00 | 0.13 | 0.00 | 48 | 1009.4 |
| 20260506160607 | 20 | 119 | 4.8 | 9.7 | 0.00 | 0.13 | 0.00 | 47 | 1009.4 |
| 20260506155603 | 20 | 138 | 3.2 | 9.7 | 0.00 | 0.43 | 0.00 | 47 | 1009.3 |
| 20260506154556 | 20 | 175 | 3.2 | 11.3 | 0.00 | 0.97 | 0.00 | 47 | 1009.2 |
| 20260506153551 | 20 | 267 | 3.2 | 9.7 | 0.00 | 0.97 | 0.00 | 46 | 1009.2 |
| 20260506152603 | 20 | 151 | 4.8 | 11.3 | 0.00 | 0.97 | 0.00 | 43 | 1009.4 |
| 20260506151539 | 21 | 106 | 3.2 | 11.3 | 0.00 | 0.97 | 0.00 | 44 | 1009.4 |
| 20260506150534 | 21 | 90 | 3.2 | 6.4 | 0.00 | 0.97 | 0.00 | 42 | 1009.5 |
| 20260506145527 | 21 | 161 | 4.8 | 12.9 | 0.00 | 0.97 | 0.00 | 42 | 1009.3 |
| 20260506144541 | 20 | 9 | 3.2 | 9.7 | 0.00 | 0.97 | 0.00 | 42 | 1009.4 |
| 20260506143637 | 20 | 285 | 6.4 | 20.9 | 0.00 | 0.97 | 0.00 | 42 | 1009.8 |
| 20260506142610 | 21 | 0 | 4.8 | 14.5 | 0.00 | 0.97 | 0.00 | 41 | 1009.6 |
| 20260506141604 | 20 | 292 | 9.7 | 17.7 | 0.00 | 0.97 | 0.00 | 43 | 1009.8 |
| 20260506140619 | 20 | 306 | 4.8 | 12.9 | 0.00 | 0.97 | 0.00 | 42 | 1009.8 |
| 20260506135556 | 20 | 295 | 4.8 | 12.9 | 0.00 | 0.97 | 0.00 | 42 | 1010.0 |
| 20260506134550 | 20 | 314 | 6.4 | 17.7 | 0.00 | 0.97 | 0.00 | 42 | 1009.9 |
| 20260506133545 | 21 | 309 | 3.2 | 9.7 | 0.00 | 0.97 | 0.00 | 41 | 1010.1 |
| 20260506132540 | 20 | 285 | 4.8 | 12.9 | 0.00 | 0.97 | 0.00 | 40 | 1010.1 |
| 20260506131532 | 20 | 265 | 9.7 | 17.7 | 0.00 | 0.97 | 0.00 | 40 | 1010.3 |
| 20260506130527 | 20 | 62 | 4.8 | 11.3 | 0.00 | 0.97 | 0.00 | 40 | 1010.3 |
| 20260506125521 | 20 | 267 | 8.0 | 20.9 | 0.00 | 0.97 | 0.00 | 41 | 1010.3 |
| 20260506124656 | 20 | 253 | 3.2 | 6.4 | 0.00 | 0.97 | 0.00 | 42 | 1010.3 |
| 20260506123651 | 18 | 276 | 9.7 | 22.5 | 0.00 | 0.97 | 0.00 | 43 | 1010.4 |
| 20260506122602 | 18 | 288 | 9.7 | 17.7 | 0.00 | 0.97 | 0.00 | 43 | 1010.4 |
| 20260506121555 | 19 | 292 | 4.8 | 9.7 | 0.00 | 0.97 | 0.00 | 42 | 1010.5 |
| 20260506120548 | 19 | 270 | 4.8 | 9.7 | 0.00 | 0.97 | 0.00 | 40 | 1010.4 |
| 20260506115544 | 18 | 277 | 4.8 | 14.5 | 0.00 | 0.97 | 0.00 | 42 | 1010.5 |
| 20260506114538 | 18 | 284 | 6.4 | 20.9 | 0.00 | 0.97 | 0.00 | 42 | 1010.6 |
| 20260506113532 | 18 | 23 | 4.8 | 11.3 | 0.00 | 0.97 | 0.00 | 42 | 1010.7 |
| 20260506112527 | 18 | 17 | 3.2 | 6.4 | 0.00 | 0.97 | 0.00 | 46 | 1010.8 |
| 20260506111522 | 17 | 248 | 8.0 | 17.7 | 0.00 | 0.97 | 0.00 | 47 | 1011.0 |
| 20260506110518 | 17 | 268 | 4.8 | 14.5 | 0.00 | 0.97 | 0.00 | 50 | 1011.0 |
| 20260506105611 | 17 | 264 | 1.6 | 6.4 | 0.00 | 0.97 | 0.00 | 52 | 1011.0 |
| 20260506104708 | 18 | 311 | 3.2 | 6.4 | 0.00 | 0.97 | 0.00 | 50 | 1011.2 |
| 20260506103601 | 17 | 185 | 3.2 | 6.4 | 0.00 | 0.97 | 0.00 | 52 | 1011.3 |
| 20260506102555 | 17 | 257 | 1.6 | 6.4 | 0.00 | 0.97 | 0.00 | 53 | 1011.3 |
| 20260506101548 | 17 | 299 | 4.8 | 14.5 | 0.00 | 0.97 | 0.00 | 53 | 1011.5 |
| 20260506100543 | 16 | 276 | 3.2 | 11.3 | 0.00 | 0.97 | 0.00 | 55 | 1011.4 |
| 20260506095536 | 16 | 290 | 4.8 | 14.5 | 0.00 | 0.97 | 0.00 | 54 | 1011.5 |
| 20260506094552 | 16 | 350 | 6.4 | 12.9 | 0.00 | 0.97 | 0.00 | 56 | 1011.7 |
| 20260506093527 | 15 | 297 | 4.8 | 9.7 | 0.00 | 0.97 | 0.00 | 56 | 1011.7 |
| 20260506092520 | 15 | 275 | 6.4 | 11.3 | 0.00 | 0.97 | 0.00 | 56 | 1011.6 |
| 20260506091614 | 15 | 284 | 8.0 | 14.5 | 0.00 | 0.97 | 0.00 | 57 | 1011.7 |
| 20260506090607 | 15 | 304 | 6.4 | 12.9 | 0.00 | 0.97 | 0.00 | 56 | 1011.5 |
| 20260506085621 | 15 | 282 | 8.0 | 14.5 | 0.00 | 0.97 | 0.00 | 56 | 1011.5 |
| 20260506084614 | 14 | 287 | 8.0 | 17.7 | 0.00 | 0.97 | 0.00 | 56 | 1011.5 |
| 20260506083551 | 14 | 292 | 4.8 | 12.9 | 0.00 | 0.97 | 0.00 | 56 | 1011.5 |
| 20260506082544 | 14 | 282 | 6.4 | 11.3 | 0.00 | 0.97 | 0.00 | 59 | 1011.5 |
| 20260506081535 | 13 | 285 | 6.4 | 14.5 | 0.00 | 0.97 | 0.00 | 61 | 1011.3 |
| 20260506080529 | 13 | 278 | 6.4 | 12.9 | 0.00 | 0.97 | 0.00 | 62 | 1011.1 |
| 20260506072604 | 12 | 287 | 6.4 | 14.5 | 0.00 | 0.97 | 0.00 | 68 | 1011.1 |
| 20260506071556 | 11 | 330 | 9.7 | 17.7 | 0.00 | 0.97 | 0.00 | 70 | 1010.9 |
| 20260506070551 | 11 | 308 | 9.7 | 22.5 | 0.00 | 0.97 | 0.00 | 70 | 1010.9 |
| 20260506061524 | 12 | 296 | 1.6 | 6.4 | 0.00 | 0.97 | 0.00 | 72 | 1010.9 |
| 20260506060517 | 12 | 270 | 1.6 | 3.2 | 0.00 | 0.97 | 0.00 | 71 | 1010.9 |
| 20260506050546 | 10 | 310 | 1.6 | 3.2 | 0.00 | 0.97 | 0.00 | 76 | 1010.4 |
| 20260506044535 | 10 | 335 | 3.2 | 9.7 | 0.00 | 0.97 | 0.00 | 77 | 1010.4 |
| 20260506043610 | 10 | 303 | 1.6 | 3.2 | 0.00 | 0.97 | 0.00 | 77 | 1010.3 |
| 20260506042522 | 10 | 293 | 3.2 | 6.4 | 0.00 | 0.97 | 0.00 | 78 | 1010.2 |
| 20260506041518 | 9 | 315 | 1.6 | 3.2 | 0.00 | 0.97 | 0.00 | 78 | 1010.1 |
| 20260506040612 | 9 | 310 | 1.6 | 6.4 | 0.00 | 0.97 | 0.00 | 79 | 1010.2 |
| 20260506035605 | 10 | 295 | 3.2 | 6.4 | 0.00 | 0.97 | 0.00 | 78 | 1010.0 |
| 20260506034559 | 10 | 357 | 3.2 | 6.4 | 0.00 | 0.97 | 0.00 | 75 | 1009.9 |
| 20260506033553 | 10 | 338 | 4.8 | 6.4 | 0.00 | 0.97 | 0.00 | 77 | 1009.9 |
| 20260506032547 | 10 | 300 | 1.6 | 3.2 | 0.00 | 0.97 | 0.00 | 79 | 1010.0 |
| 20260506031540 | 10 | 313 | 1.6 | 6.4 | 0.00 | 0.97 | 0.00 | 77 | 1010.0 |
| 20260506030535 | 11 | 279 | 3.2 | 6.4 | 0.00 | 0.97 | 0.00 | 77 | 1009.9 |
| 20260506025527 | 11 | 90 | 0.0 | 3.2 | 0.00 | 0.97 | 0.00 | 76 | 1009.8 |
| 20260506024521 | 11 | 0.0 | 3.2 | 0.00 | 0.97 | 0.00 | 75 | 1009.8 | |
| 20260506023616 | 11 | 11 | 3.2 | 6.4 | 0.00 | 0.97 | 0.00 | 74 | 1009.9 |
| 20260506022630 | 11 | 315 | 1.6 | 3.2 | 0.00 | 0.97 | 0.00 | 75 | 1009.9 |
| 20260506021644 | 11 | 297 | 1.6 | 6.4 | 0.00 | 0.97 | 0.00 | 73 | 1009.8 |
| 20260506020558 | 11 | 270 | 0.0 | 3.2 | 0.00 | 0.97 | 0.00 | 72 | 1009.7 |
| 20260506015551 | 11 | 290 | 1.6 | 3.2 | 0.00 | 0.97 | 0.00 | 74 | 1009.5 |
| 20260506014547 | 11 | 301 | 1.6 | 6.4 | 0.00 | 0.97 | 0.00 | 72 | 1009.3 |
| 20260506013541 | 11 | 293 | 1.6 | 6.4 | 0.00 | 0.97 | 0.00 | 73 | 1009.6 |
| 20260506012536 | 11 | 315 | 3.2 | 6.4 | 0.00 | 0.97 | 0.00 | 72 | 1009.7 |
| 20260506011530 | 11 | 307 | 1.6 | 6.4 | 0.00 | 0.97 | 0.00 | 77 | 1009.6 |
| 20260506010626 | 11 | 270 | 0.0 | 3.2 | 0.00 | 0.97 | 0.00 | 81 | 1009.8 |
| 20260506005519 | 11 | 287 | 0.0 | 3.2 | 0.00 | 0.97 | 0.00 | 83 | 1009.8 |
| 20260506004611 | 11 | 0.0 | 0.0 | 0.00 | 0.97 | 0.00 | 83 | 1009.9 | |
| 20260506003645 | 11 | 0.0 | 0.0 | 0.00 | 0.97 | 0.00 | 83 | 1010.0 | |
| 20260506002558 | 11 | 0.0 | 0.0 | 0.00 | 0.97 | 0.00 | 83 | 1009.9 | |
| 20260506000548 | 11 | 0.0 | 0.0 | 0.00 | 0.97 | 0.00 | 84 | 1010.0 | |
| 20260505235623 | 11 | 0.0 | 3.2 | 0.00 | 0.97 | 0.00 | 83 | 1010.1 | |
| 20260505234537 | 11 | 270 | 0.0 | 3.2 | 0.00 | 0.97 | 0.00 | 82 | 1010.0 |
| 20260505233532 | 11 | 6 | 1.6 | 3.2 | 0.00 | 0.97 | 0.00 | 82 | 1010.0 |
| 20260505232526 | 11 | 360 | 3.2 | 6.4 | 0.00 | 0.97 | 0.00 | 84 | 1010.2 |
| 20260505231540 | 11 | 323 | 3.2 | 6.4 | 0.00 | 0.97 | 0.00 | 84 | 1010.1 |
| 20260505230613 | 11 | 319 | 3.2 | 3.2 | 0.00 | 0.97 | 0.00 | 83 | 1010.0 |
| 20260505225606 | 11 | 338 | 4.8 | 6.4 | 0.00 | 0.97 | 0.00 | 82 | 1009.7 |
| 20260505224600 | 11 | 315 | 3.2 | 6.4 | 0.00 | 0.97 | 0.00 | 82 | 1009.9 |
| 20260505223556 | 12 | 299 | 3.2 | 6.4 | 0.00 | 0.97 | 0.00 | 81 | 1010.2 |
| 20260505222551 | 12 | 293 | 1.6 | 3.2 | 0.00 | 0.97 | 0.00 | 79 | 1010.3 |
| 20260505221546 | 12 | 338 | 3.2 | 6.4 | 0.00 | 0.97 | 0.00 | 80 | 1010.4 |
| 20260505220539 | 12 | 305 | 3.2 | 6.4 | 0.00 | 0.97 | 0.00 | 81 | 1010.6 |
| 20260505215551 | 12 | 333 | 3.2 | 6.4 | 0.00 | 0.97 | 0.97 | 80 | 1010.7 |
| 20260505214526 | 12 | 310 | 1.6 | 3.2 | 0.00 | 0.97 | 0.97 | 81 | 1010.7 |
| 20260505213519 | 11 | 351 | 1.6 | 3.2 | 0.00 | 0.97 | 0.97 | 82 | 1010.6 |
| 20260505212615 | 12 | 285 | 4.8 | 9.7 | 0.00 | 0.97 | 0.97 | 79 | 1010.6 |
| 20260505211611 | 12 | 322 | 1.6 | 3.2 | 0.00 | 0.97 | 0.97 | 81 | 1010.5 |
| 20260505210625 | 11 | 301 | 3.2 | 6.4 | 0.00 | 0.97 | 0.97 | 83 | 1010.5 |
| 20260505205559 | 11 | 326 | 3.2 | 6.4 | 0.00 | 0.97 | 0.97 | 82 | 1010.3 |
| 20260505204553 | 12 | 320 | 3.2 | 6.4 | 0.00 | 0.97 | 0.97 | 81 | 1010.3 |
| 20260505203548 | 12 | 313 | 1.6 | 3.2 | 0.00 | 0.97 | 0.97 | 81 | 1010.3 |
| 20260505202542 | 11 | 342 | 1.6 | 3.2 | 0.00 | 0.99 | 0.97 | 83 | 1010.1 |
| 20260505201536 | 11 | 342 | 1.6 | 3.2 | 0.00 | 1.09 | 0.97 | 83 | 1010.0 |
| 20260505200530 | 12 | 279 | 3.2 | 6.4 | 0.00 | 1.12 | 0.97 | 81 | 1010.0 |
| 20260505195525 | 12 | 275 | 3.2 | 6.4 | 0.00 | 1.12 | 0.97 | 78 | 1009.7 |
| 20260505194520 | 12 | 338 | 3.2 | 6.4 | 0.00 | 1.14 | 0.97 | 77 | 1009.3 |
| 20260505193615 | 12 | 349 | 4.8 | 6.4 | 0.00 | 1.14 | 0.97 | 78 | 1009.3 |
| 20260505192609 | 13 | 328 | 1.6 | 6.4 | 0.00 | 1.19 | 0.97 | 76 | 1009.2 |
| 20260505191604 | 12 | 33 | 3.2 | 9.7 | 0.00 | 1.19 | 0.97 | 78 | 1009.2 |
| 20260505190558 | 12 | 334 | 6.4 | 11.3 | 0.00 | 1.19 | 0.97 | 76 | 1009.3 |
| 20260505185552 | 12 | 360 | 4.8 | 9.7 | 0.00 | 1.19 | 0.97 | 79 | 1009.3 |
| 20260505184607 | 12 | 341 | 4.8 | 9.7 | 0.00 | 1.19 | 0.97 | 84 | 1009.2 |
| 20260505183542 | 12 | 334 | 4.8 | 9.7 | 0.00 | 1.19 | 0.97 | 84 | 1009.1 |
| 20260505182537 | 12 | 325 | 3.2 | 6.4 | 0.00 | 1.19 | 0.97 | 84 | 1009.2 |
| 20260505181530 | 12 | 330 | 6.4 | 12.9 | 0.03 | 1.19 | 0.97 | 83 | 1009.0 |